Angleton, TX

6:05 AM CDT on July 28, 2016 (GMT -0500)
Brazoria County

Weather History for KLBX - March, 2013

Change the Weather History Date:

Sunday, March 3, 2013

  Actual Average Record
Temperature  
Mean Temperature 47 °F -  
Max Temperature 64 °F 66 °F 82 °F (2016)
Min Temperature 30 °F 49 °F 28 °F (2014)
Degree Days  
Heating Degree Days 18    
Moisture  
Dew Point 37 °F    
Average Humidity 63    
Maximum Humidity 85    
Minimum Humidity 34    
Precipitation  
Precipitation 0.00 in - - ()
Sea Level Pressure  
Sea Level Pressure 30.19 in    
Wind  
Wind Speed 5 mph (South)    
Max Wind Speed 15 mph    
Max Gust Speed 22 mph    
Visibility 10 miles    
Events      
Averages and records for this station are not official NWS values.
T = Trace of Precipitation, MM = Missing Value Source: NWS Daily Summary

Daily Weather History Graph

Daily Weather History Graph

Search for Another Location

Airport or City:

Trip Planner

Search our weather history database for the weather conditions in past years. The results will help you decide how hot, cold, wet, or windy it might be!

Date:

Astronomy

Mar. 03, 2013 Rise Set
Actual Time 6:44 AM CST 6:23 PM CST
Civil Twilight 6:20 AM CST 6:46 PM CST
Nautical Twilight 5:53 AM CST 7:14 PM CST
Astronomical Twilight 5:26 AM CST 7:41 PM CST
Moon No Moon Rise 10:31 AM CST (3/3)
Length of Visible Light 12h 25m
Length of Day
11h 38m
Waning Gibbous, 63% of the Moon is Illuminated
Mar 3
Waning Gibbous
Mar 4
Last Quarter
Mar 11
New
Mar 19
First Quarter
Mar 27
Full

Hourly Weather History & Observations

Time (CST) Temp. Windchill Dew Point Humidity Pressure Visibility Wind Dir Wind Speed Gust Speed Precip Events Conditions
12:53 AM 33.1 °F - 26.1 °F 75% 30.29 in 10.0 mi Calm Calm - N/A   Clear
1:53 AM 32.0 °F - 26.1 °F 79% 30.29 in 10.0 mi Calm Calm - N/A   Clear
2:53 AM 30.9 °F - 27.0 °F 85% 30.27 in 10.0 mi Calm Calm - N/A   Clear
3:53 AM 32.0 °F - 28.0 °F 85% 30.25 in 10.0 mi Calm Calm - N/A   Clear
4:53 AM 30.9 °F 27.5 °F 27.0 °F 85% 30.26 in 10.0 mi North 3.5 mph - N/A   Clear
6:53 AM 30.9 °F - 27.0 °F 85% 30.27 in 10.0 mi Calm Calm - N/A   Clear
7:53 AM 37.9 °F - 32.0 °F 79% 30.29 in 10.0 mi Calm Calm - N/A   Clear
8:53 AM 52.0 °F - 33.1 °F 49% 30.29 in 10.0 mi East 5.8 mph - N/A   Clear
9:53 AM 57.0 °F - 32.0 °F 39% 30.29 in 10.0 mi Calm Calm - N/A   Clear
10:53 AM 61.0 °F - 33.1 °F 35% 30.27 in 10.0 mi SSE 8.1 mph - N/A   Clear
11:53 AM 63.0 °F - 34.0 °F 34% 30.25 in 10.0 mi SSW 9.2 mph - N/A   Clear
12:53 PM 64.0 °F - 37.0 °F 37% 30.21 in 10.0 mi South 11.5 mph 17.3 mph N/A   Clear
1:53 PM 64.0 °F - 37.9 °F 38% 30.18 in 10.0 mi SSE 11.5 mph 19.6 mph N/A   Clear
2:53 PM 64.0 °F - 39.9 °F 41% 30.14 in 10.0 mi SSE 13.8 mph 21.9 mph N/A   Clear
3:53 PM 64.0 °F - 39.9 °F 41% 30.14 in 10.0 mi South 13.8 mph - N/A   Clear
4:53 PM 63.0 °F - 42.1 °F 46% 30.14 in 10.0 mi South 15.0 mph - N/A   Clear
5:53 PM 60.1 °F - 43.0 °F 53% 30.12 in 10.0 mi South 15.0 mph - N/A   Clear
6:53 PM 53.1 °F - 44.1 °F 71% 30.10 in 10.0 mi South 9.2 mph - N/A   Clear
7:53 PM 51.1 °F - 45.0 °F 80% 30.09 in 10.0 mi South 8.1 mph - N/A   Clear
8:53 PM 53.1 °F - 46.9 °F 80% 30.09 in 10.0 mi South 9.2 mph - N/A   Clear
9:53 PM 55.9 °F - 50.0 °F 80% 30.08 in 10.0 mi South 11.5 mph - N/A   Clear
10:53 PM 57.9 °F - 50.0 °F 75% 30.05 in 10.0 mi South 15.0 mph - N/A   Clear
11:53 PM 57.9 °F - 51.1 °F 78% 30.03 in 10.0 mi South 13.8 mph - N/A   Clear